{"data":{"norad_id":65965,"intl_designator":"2025-228U","name":"KUIPER-00140","alt_names":[],"object_type":"PAYLOAD","status":"ACTIVE","operator":null,"country":"US","launch_date":"2025-10-14","launch_site_code":"AFETR","launch_vehicle":null,"mission":null,"orbit_class":"UNKNOWN","rcs_meters":null,"size_class":null,"mass_kg":null,"dimensions":null,"purposes":[],"wikipedia_slug":null,"has_3d_model":false,"image_url":null,"decayed_at":null,"tle_current":{"epoch":"2026-05-24T23:40:33.242304Z","epoch_age_seconds":76323,"freshness":"FRESH","line1":"1 65965U 25228U   26144.98649586  .00001565  00000+0  23429-3 0  9991","line2":"2 65965  51.8995   8.2829 0000803 106.4572 253.6479 14.79937302 34733","mean_motion":14.79937302,"eccentricity":8.03e-5,"inclination_deg":51.8995,"raan_deg":8.2829,"arg_perigee_deg":106.4572,"mean_anomaly_deg":253.6479,"bstar":0.00023429,"rev_number":3473,"period_min":97.30141932729,"perigee_km":628.9593338383,"apogee_km":630.08476388155,"semimajor_km":7007.6590488599,"source":"CELESTRAK","updated_at":"2026-05-25T13:38:05.849879Z"}}}